Regional Weather Roundup
Issued by NWS

Home | Current Version | Previous Version | Text Only | Print | Product List | Glossary On
Versions: 1 2 3 4 5 6 7 8 9 10 11 12 13 14 15 16 17 18 19 20 21 22 23 24 25 26 27 28 29 30 31 32 33 34 35 36 37 38 39 40 41 42 43 44 45 46 47 48 49 50
000
ASUS43 KOAX 220210
RWRNE

WEATHER ROUNDUP FOR NEBRASKA
NATIONAL WEATHER SERVICE OMAHA NE
900 PM CDT MON AUG 21 2017

NOTES: SATELLITE DATA IS BEING USED TO AUGMENT CLOUD COVER ABOVE
       12000 FEET.
       "FAIR" INDICATES FEW OR NO CLOUDS BELOW 12,000 FEET WITH NO
       SIGNIFICANT WEATHER AND/OR OBSTRUCTIONS TO VISIBILITY.


NEZ001>004-019>022-054>056-220300-
NEBRASKA PANHANDLE

CITY           SKY/WX    TMP DP  RH WIND       PRES   REMARKS
SCOTTSBLUFF    CLEAR     69  49  48 NE8       30.16R
ALLIANCE       CLEAR     64  49  57 NE8       30.15R
CHADRON        CLEAR     69  46  43 E6        30.14R
GORDON         FAIR      63  47  56 N7        30.15R
KIMBALL        CLEAR     69  45  42 NE8       30.21R
SIDNEY         CLEAR     71  50  47 NE9       30.17R
$$

NEZ057>060-069>072-079>082-220300-
SOUTHWEST NEBRASKA

CITY           SKY/WX    TMP DP  RH WIND       PRES   REMARKS
NORTH PLATTE   CLEAR     73  66  78 N8        30.05R
IMPERIAL       CLEAR     75  65  70 NE14      30.07R
LEXINGTON      MOCLDY    78  69  74 N13G20    30.00R
MCCOOK         PTCLDY    79  69  71 N15       29.99R
OGALLALA       CLEAR     73  63  71 NE8       30.10R
$$

NEZ005>010-023>029-035>040-094-220300-
NORTH CENTRAL NEBRASKA

CITY           SKY/WX    TMP DP  RH WIND       PRES   REMARKS
VALENTINE      CLEAR     73  56  54 N13       30.08R
AINSWORTH      CLEAR     67  66  94 NE5       30.08S
BROKEN BOW     CLOUDY    75  65  70 N10G20    30.03R
O`NEILL        CLEAR     67  66  97 CALM      30.05R
ORD            CLOUDY    70  63  78 NE13      30.01R
THEDFORD       CLEAR     71  64  77 N5        30.09R
$$

NEZ041-046>049-061>064-073>077-083>087-220300-
SOUTH CENTRAL NEBRASKA

CITY           SKY/WX    TMP DP  RH WIND       PRES   REMARKS
GRAND ISLAND   MOCLDY    78  72  81 N8        29.94R
AURORA         MOCLDY    75  72  92 NW3       29.93R
HASTINGS       CLEAR     78  71  79 CALM      29.94S
HEBRON         CLEAR     75  71  87 S3        29.91R
HOLDREGE       CLEAR     75  70  83 N6        29.96S HAZE
KEARNEY        PTCLDY    79  72  79 N15       29.97R
YORK           CLOUDY    73  73 100 CALM      29.92R
$$

NEZ011>018-030>034-042>045-220300-
NORTHEAST NEBRASKA

CITY           SKY/WX    TMP DP  RH WIND       PRES   REMARKS
NORFOLK        LGT RAIN  65  65 100 CALM      30.00R
ALBION         CLOUDY    67  65  94 NE12      30.01S THUNDER
BLAIR          CLOUDY    72  66  80 N15       29.98R
COLUMBUS       MOCLDY    70  65  84 N20G28    29.99R
FREMONT        HVY RAIN  71  65  81 NE20G30   29.98R
TEKAMAH        TSTM      66  65  96 E6        30.00R FOG
WAYNE          CLOUDY    65  63  92 CALM      29.99R
$$

NEZ050>053-065>068-078-088>093-220300-
SOUTHEAST NEBRASKA

CITY           SKY/WX    TMP DP  RH WIND       PRES   REMARKS
LINCOLN        CLEAR     77  71  82 NE5       29.92R
OMAHA EPPLEY   CLOUDY    73  65  75 E13       29.95R
BEATRICE       MOCLDY    79  70  74 S7        29.91R
FALLS CITY     LGT RAIN  72  69  90 S14       29.95R
NEBRASKA CITY  CLOUDY    77  77 100 CALM      29.92R
PLATTSMOUTH    CLOUDY    77  73  88 NE12      29.94R
$$

NEZ044-045-051>053-067-220300-
OMAHA AREA

CITY           SKY/WX    TMP DP  RH WIND       PRES   REMARKS
OMAHA EPPLEY   CLOUDY    73  65  75 E13       29.95R
BLAIR          CLOUDY    72  66  80 N15       29.98R
FREMONT        HVY RAIN  71  65  81 NE20G30   29.98R
MILLARD        CLOUDY    76  68  75 E12G18    29.94R
OFFUTT AFB     CLOUDY    73  66  80 NE15G23   29.95R
PLATTSMOUTH    CLOUDY    77  73  88 NE12      29.94R
WAHOO          CLOUDY    77  73  87 NE6       29.94R
$$




USA.gov is the U.S. government's official web portal to all federal, state and local government web resources and services.